Regional Weather Roundup
Issued by NWS

Home | Current Version | Previous Version | Text Only | Print | Product List | Glossary On
Versions: 1 2 3 4 5 6 7 8 9 10 11 12 13 14 15 16 17 18 19 20 21 22 23 24 25 26 27 28 29 30 31 32 33 34 35 36 37 38 39 40 41 42 43 44 45 46 47 48 49 50
000
ASUS45 KCYS 011210
RWRWY

WYOMING REGIONAL WEATHER ROUNDUP
NATIONAL WEATHER SERVICE CHEYENNE WY
600 AM MDT FRI AUG 01 2014

NOTE:  "FAIR" INDICATES FEW OR NO CLOUDS BELOW 12,000 FEET
WITH NO SIGNIFICANT WEATHER AND/OR OBSTRUCTIONS TO VISIBILITY.

WYZ001-011300-
YELLOWSTONE NATIONAL PARK

CITY           SKY/WX    TMP DP  RH WIND       PRES   REMARKS
LK YELLOWSTONE   N/A     37  35  92 CALM      30.44S
6HR MIN TEMP:  37; 6HR MAX TEMP:  50;

W YELLOWSTONE  NOT AVBL

$$
WYZ002>013-054>058-071-098>099-011300-
NORTHERN WYOMING

CITY           SKY/WX    TMP DP  RH WIND       PRES   REMARKS
JACKSON        CLEAR     45  39  81 N6        30.34S
CODY           CLEAR     63  41  45 S6        30.23S
GREYBULL       PTCLDY    60  40  47 E3        30.15R
6HR MIN TEMP:  57; 6HR MAX TEMP:  72;

WORLAND        CLEAR     58  42  55 S10       30.17R
6HR MIN TEMP:  57; 6HR MAX TEMP:  69;

SHERIDAN       PTCLDY    57  42  57 CALM      30.13S
6HR MIN TEMP:  54; 6HR MAX TEMP:  64;

BUFFALO        PTCLDY    60  36  40 W6        30.20R
6HR MIN TEMP:  60; 6HR MAX TEMP:  67;

GILLETTE       PTCLDY    63  41  44 SW14      30.14R
6HR MIN TEMP:  62; 6HR MAX TEMP:  68;

HULETT         FAIR      70  41  35 MISG      30.15
NEWCASTLE      FAIR      63  43  48 MISG      30.19

$$
WYZ014>020-022>026-101>103-011300-
CENTRAL WYOMING

CITY           SKY/WX    TMP DP  RH WIND       PRES   REMARKS
BIG PINEY      PTCLDY    48  45  89 NW6       30.36R
6HR MIN TEMP:  47; 6HR MAX TEMP:  54;

PINEDALE       CLOUDY    48  43  81 W3        30.37R
DUBOIS         FAIR      48  37  66 NW10      30.37R
LANDER         CLEAR     59  36  42 SW6       30.25R
6HR MIN TEMP:  54; 6HR MAX TEMP:  66;

RIVERTON       PTCLDY    56  44  64 W7        30.25R
6HR MIN TEMP:  55; 6HR MAX TEMP:  67;

CASPER         CLEAR     55  43  63 SW8       30.24R
6HR MIN TEMP:  49; 6HR MAX TEMP:  62;

DOUGLAS        CLEAR     52  44  74 S3        30.23R
6HR MIN TEMP:  50; 6HR MAX TEMP:  61;


$$
WYZ021-027>030-104>119-011300-
SOUTHERN WYOMING

CITY           SKY/WX    TMP DP  RH WIND       PRES   REMARKS
EVANSTON       PTCLDY    56  41  57 SE5       30.32S
6HR MIN TEMP:  53; 6HR MAX TEMP:  63;

KEMMERER       MOSUNNY   48  39  71 N14       30.35R
FORT BRIDGER   FAIR      54  44  69 W6        30.35S
ROCK SPRINGS   CLEAR     53  36  52 NE8       30.32R
6HR MIN TEMP:  53; 6HR MAX TEMP:  64;

DIXON          FAIR      51  40  66 NE7       30.31R
RAWLINS        CLEAR     46  41  82 N8        30.32S
6HR MIN TEMP:  45; 6HR MAX TEMP:  60;

SARATOGA       FAIR      43  37  81 SE6       30.35R
LARAMIE        CLEAR     43  41  93 SW5       30.35R
6HR MIN TEMP:  43; 6HR MAX TEMP:  53;

CHEYENNE       CLEAR     51  44  77 W10       30.30R
6HR MIN TEMP:  50; 6HR MAX TEMP:  59;

TORRINGTON     CLEAR     51  47  86 SE5       30.18S
6HR MIN TEMP:  50; 6HR MAX TEMP:  62;

PINE BLUFFS    FAIR      50  46  87 SW3       30.26R

$$


USA.gov is the U.S. government's official web portal to all federal, state and local government web resources and services.